TimeEDT,TemperatureF,Dew PointF,Humidity,Sea Level PressureIn,VisibilityMPH,Wind Direction,Wind SpeedMPH,Gust SpeedMPH,PrecipitationIn,Events,Conditions,WindDirDegrees,DateUTC
12:13 AM,41.0,39.2,93,30.14,10.0,West,3.5,-,N/A,,Overcast,270,2012-10-08 04:13:00
12:33 AM,41.0,39.2,93,30.14,10.0,West,4.6,-,N/A,,Overcast,270,2012-10-08 04:33:00
12:53 AM,41.0,37.4,87,30.14,10.0,West,4.6,-,N/A,,Overcast,280,2012-10-08 04:53:00
1:14 AM,39.2,37.4,93,30.15,10.0,West,4.6,-,N/A,,Mostly Cloudy,270,2012-10-08 05:14:00
1:34 AM,37.4,37.4,100,30.15,10.0,Calm,Calm,-,N/A,,Mostly Cloudy,0,2012-10-08 05:34:00
1:54 AM,39.2,37.4,93,30.15,10.0,Calm,Calm,-,N/A,,Overcast,0,2012-10-08 05:54:00
2:14 AM,39.2,37.4,93,30.16,10.0,WSW,3.5,-,N/A,,Overcast,250,2012-10-08 06:14:00
2:34 AM,37.4,37.4,100,30.17,10.0,Calm,Calm,-,N/A,,Overcast,0,2012-10-08 06:34:00
2:54 AM,37.4,37.4,100,30.17,10.0,Calm,Calm,-,N/A,,Overcast,0,2012-10-08 06:54:00
3:14 AM,37.4,35.6,93,30.17,10.0,Calm,Calm,-,N/A,,Overcast,0,2012-10-08 07:14:00
3:34 AM,37.4,35.6,93,30.17,10.0,WSW,3.5,-,N/A,,Mostly Cloudy,240,2012-10-08 07:34:00
3:49 AM,35.6,35.6,100,30.17,10.0,Calm,Calm,-,N/A,,Scattered Clouds,0,2012-10-08 07:49:00
4:12 AM,33.8,33.8,100,30.17,10.0,Calm,Calm,-,N/A,,Scattered Clouds,0,2012-10-08 08:12:00
4:32 AM,35.6,35.6,100,30.17,7.0,Calm,Calm,-,N/A,,Clear,0,2012-10-08 08:32:00
4:52 AM,33.8,33.8,100,30.17,2.0,Calm,Calm,-,N/A,,Clear,0,2012-10-08 08:52:00
5:12 AM,32.0,32.0,100,30.16,5.0,Calm,Calm,-,N/A,,Clear,0,2012-10-08 09:12:00
5:32 AM,33.8,33.8,100,30.17,1.8,Calm,Calm,-,N/A,,Mist,0,2012-10-08 09:32:00
5:52 AM,32.0,32.0,100,30.18,10.0,Calm,Calm,-,N/A,,Clear,0,2012-10-08 09:52:00
6:12 AM,32.0,32.0,100,30.18,2.5,Calm,Calm,-,N/A,,Clear,0,2012-10-08 10:12:00
6:32 AM,32.0,32.0,100,30.19,4.0,Calm,Calm,-,N/A,,Clear,0,2012-10-08 10:32:00
6:52 AM,30.2,30.2,100,30.19,1.0,Calm,Calm,-,N/A,,Mist,0,2012-10-08 10:52:00
7:13 AM,30.2,30.2,100,30.19,0.5,Calm,Calm,-,N/A,Fog,Light Freezing Fog,0,2012-10-08 11:13:00
7:33 AM,30.2,30.2,100,30.19,1.8,Calm,Calm,-,N/A,,Mist,0,2012-10-08 11:33:00
7:53 AM,28.4,28.4,100,30.20,4.0,Calm,Calm,-,N/A,,Clear,0,2012-10-08 11:53:00
8:13 AM,30.2,30.2,100,30.20,5.0,Calm,Calm,-,N/A,,Clear,0,2012-10-08 12:13:00
8:33 AM,32.0,32.0,100,30.21,4.0,Calm,Calm,-,N/A,,Clear,0,2012-10-08 12:33:00
8:53 AM,35.6,35.6,100,30.21,7.0,Calm,Calm,-,N/A,,Clear,0,2012-10-08 12:53:00
9:13 AM,39.2,35.6,87,30.21,10.0,WSW,4.6,-,N/A,,Clear,240,2012-10-08 13:13:00
9:33 AM,41.0,37.4,87,30.21,10.0,WSW,4.6,-,N/A,,Clear,240,2012-10-08 13:33:00
9:54 AM,42.8,37.4,81,30.21,10.0,WSW,6.9,-,N/A,,Clear,240,2012-10-08 13:54:00
10:14 AM,44.6,37.4,76,30.21,10.0,WSW,5.8,-,N/A,,Clear,240,2012-10-08 14:14:00
10:34 AM,46.4,35.6,66,30.20,10.0,SW,8.1,-,N/A,,Clear,220,2012-10-08 14:34:00
10:54 AM,46.4,33.8,62,30.21,10.0,SW,9.2,-,N/A,,Clear,230,2012-10-08 14:54:00
11:14 AM,48.2,32.0,54,30.21,10.0,SW,10.4,-,N/A,,Clear,220,2012-10-08 15:14:00
11:34 AM,50.0,30.2,47,30.21,10.0,WSW,8.1,-,N/A,,Clear,240,2012-10-08 15:34:00
11:54 AM,51.8,30.2,44,30.21,10.0,SW,10.4,-,N/A,,Clear,220,2012-10-08 15:54:00
12:14 PM,50.0,30.2,47,30.21,10.0,SW,9.2,-,N/A,,Scattered Clouds,220,2012-10-08 16:14:00
12:34 PM,50.0,28.4,43,30.21,10.0,WSW,8.1,-,N/A,,Scattered Clouds,250,2012-10-08 16:34:00
12:54 PM,51.8,30.2,44,30.20,10.0,SSW,8.1,-,N/A,,Scattered Clouds,200,2012-10-08 16:54:00
1:15 PM,51.8,28.4,41,30.19,10.0,SW,8.1,-,N/A,,Scattered Clouds,220,2012-10-08 17:15:00
1:35 PM,51.8,28.4,41,30.18,10.0,SSW,10.4,-,N/A,,Clear,210,2012-10-08 17:35:00
1:55 PM,53.6,28.4,38,30.17,10.0,SSW,6.9,-,N/A,,Clear,210,2012-10-08 17:55:00
2:15 PM,53.6,30.2,41,30.15,10.0,SW,8.1,-,N/A,,Clear,220,2012-10-08 18:15:00
2:35 PM,53.6,28.4,38,30.15,10.0,SSW,9.2,-,N/A,,Clear,200,2012-10-08 18:35:00
2:55 PM,53.6,26.6,35,30.14,10.0,SSW,9.2,-,N/A,,Clear,200,2012-10-08 18:55:00
3:15 PM,53.6,26.6,35,30.14,10.0,SSW,6.9,-,N/A,,Clear,210,2012-10-08 19:15:00
3:35 PM,53.6,28.4,38,30.13,10.0,South,9.2,-,N/A,,Clear,190,2012-10-08 19:35:00
4:16 PM,53.6,28.4,38,30.13,10.0,South,8.1,-,N/A,,Clear,190,2012-10-08 20:16:00
4:31 PM,53.6,26.6,35,30.12,10.0,SW,6.9,-,N/A,,Clear,220,2012-10-08 20:31:00
4:51 PM,53.6,28.4,38,30.12,10.0,South,10.4,-,N/A,,Clear,190,2012-10-08 20:51:00
5:11 PM,53.6,28.4,38,30.12,10.0,South,10.4,-,N/A,,Clear,180,2012-10-08 21:11:00
5:31 PM,53.6,28.4,38,30.12,10.0,SSW,8.1,-,N/A,,Clear,200,2012-10-08 21:31:00
5:51 PM,53.6,28.4,38,30.12,10.0,SSW,6.9,10.4,N/A,,Clear,200,2012-10-08 21:51:00
6:11 PM,51.8,28.4,41,30.12,10.0,SW,6.9,-,N/A,,Clear,220,2012-10-08 22:11:00
6:31 PM,51.8,28.4,41,30.12,10.0,SSW,8.1,-,N/A,,Clear,200,2012-10-08 22:31:00
6:52 PM,50.0,30.2,47,30.11,10.0,SSW,4.6,-,N/A,,Clear,200,2012-10-08 22:52:00
7:12 PM,48.2,30.2,50,30.11,10.0,Calm,Calm,-,N/A,,Clear,0,2012-10-08 23:12:00
7:32 PM,46.4,30.2,53,30.11,10.0,Calm,Calm,-,N/A,,Clear,0,2012-10-08 23:32:00
7:52 PM,42.8,32.0,66,30.11,10.0,Calm,Calm,-,N/A,,Clear,0,2012-10-08 23:52:00
8:32 PM,41.0,33.8,76,30.11,10.0,Calm,Calm,-,N/A,,Clear,0,2012-10-09 00:32:00
8:52 PM,41.0,32.0,70,30.11,10.0,SSE,3.5,-,N/A,,Clear,160,2012-10-09 00:52:00
9:12 PM,41.0,33.8,76,30.12,10.0,Calm,Calm,-,N/A,,Clear,0,2012-10-09 01:12:00
10:13 PM,41.0,33.8,76,30.13,10.0,Calm,Calm,-,N/A,,Clear,0,2012-10-09 02:13:00
10:33 PM,41.0,33.8,76,30.13,10.0,South,3.5,-,N/A,,Clear,180,2012-10-09 02:33:00
10:53 PM,41.0,33.8,76,30.14,10.0,South,3.5,-,N/A,,Clear,170,2012-10-09 02:53:00
11:13 PM,41.0,32.0,70,30.13,10.0,South,3.5,-,N/A,,Clear,170,2012-10-09 03:13:00
11:33 PM,41.0,32.0,70,30.13,10.0,South,4.6,-,N/A,,Clear,180,2012-10-09 03:33:00
11:53 PM,41.0,30.2,65,30.13,10.0,South,3.5,-,N/A,,Clear,190,2012-10-09 03:53:00